Flag for U.S.A. Weather past 2 weeks in Davis, California, U.S.A.

Now
50 °F

Clear.


Feels Like: 48 °F
Forecast: 41 / 62 °F
Wind: 5 mph from Southwest

Location: Sacramento International Airport

Current Time: Mar 1, 2015 at 9:44:00 PM

Latest Report: Mar 1, 2015 at 8:53 PM


Visibility: 10 mi

Pressure: 29.88 "Hg

Humidity: 59%

Dew point: 36 °F

Location of DavisLocation

Historic Weather in Davis — Graph

°F

Davis temperature yesterday

Maximum temperature yesterday: 58 °F (at 3:53 PM)
Minimum temperature yesterday: 41 °F (at 11:53 PM)
Average temperature yesterday: 50 °F

Past Weeks' High & Low Weather Summary

 TemperatureHumidityPressure
High71 °F (Feb 16, 2:53 PM)100% (Feb 15, 4:02 AM)30.35 "Hg (Feb 15, 4:02 AM)
Low34 °F (Feb 24, 6:53 AM)19% (Feb 24, 2:53 PM)29.64 "Hg (Feb 27, 5:53 PM)
Average53 °F72%30.01 "Hg
* Reported Feb 14 7:53 PM — Mar 1 7:53 PM, Davis, Weather by CustomWeather, © 2015

Note: Actual official high and low records may vary slightly from our data, if they occured in-between our weather recording intervals... More about our weather records

Advertising

Davis weather history for previous 24 hours

 ConditionsComfort  
Time TempWeatherWind HumidityBarometerVisibility
7:53 PM
Sun, Mar 1
51 °FClear.6 mph59%29.88 "Hg10 mi
6:53 PM57 °FClear.5 mph46%29.88 "Hg10 mi
5:53 PM58 °FSunny.8 mph47%29.88 "Hg10 mi
4:53 PM64 °FSunny.8 mph37%29.88 "Hg10 mi
3:53 PM66 °FSunny.10 mph34%29.88 "Hg10 mi
2:53 PM66 °FSunny.14 mph34%29.90 "Hg10 mi
1:53 PM65 °FSunny.12 mph39%29.91 "Hg10 mi
12:53 PM63 °FSunny.12 mph41%29.94 "Hg10 mi
11:53 AM59 °FSunny.8 mph46%29.98 "Hg10 mi
10:53 AM56 °FSunny.8 mph51%29.99 "Hg10 mi
9:53 AM52 °FSunny.6 mph57%30.00 "Hg10 mi
8:53 AM49 °FSunny.10 mph66%30.00 "Hg10 mi
7:53 AM44 °FSunny.7 mph76%29.98 "Hg10 mi
6:53 AM36 °FSunny.7 mph82%29.97 "Hg10 mi
5:53 AM39 °FClear.3 mph82%29.96 "Hg10 mi
4:53 AM40 °FClear.6 mph83%29.94 "Hg10 mi
3:53 AM40 °FClear.3 mph89%29.93 "Hg10 mi
2:53 AM39 °FClear.6 mph93%29.93 "Hg10 mi
1:53 AM41 °FClear.7 mph93%29.94 "Hg10 mi
12:53 AM41 °FClear.3 mph89%29.93 "Hg9 mi
11:53 PM
Sat, Feb 28
41 °FClear.3 mph96%29.92 "Hg10 mi
10:53 PM44 °FClear.No wind89%29.91 "Hg10 mi
9:53 PM44 °FClear.5 mph89%29.90 "Hg10 mi
Weather by CustomWeather, © 2015

See weather overviewHow to use our weather pages